Simultaneous Nadir Overpasses (SNOs) Predictions

Prediction of SNOs between AQUA and GOES-15 Satellite Orbit:

Table of predicted SNOs for the next 14.0 days since TLE Epoch: 9/21/2013
Index Date Time (AQUA) AQUA Lat,Lon GOES-15 Lat,Lon Distance(km) Time Diff (sec)
1 09/21/2013 10:50:18 0.99,-138.55 0.32,-135.50 347.32 80
2 09/23/2013 10:38:09 0.34,-135.60 0.33,-135.48 13.42 80
3 09/25/2013 10:25:58 -0.27,-132.65 0.33,-135.46 320.04 80
4 09/25/2013 22:47:22 -0.80,-137.85 -0.30,-135.40 277.98 80
5 09/27/2013 22:35:11 -0.17,-134.89 -0.30,-135.37 54.98 80
6 09/29/2013 22:23:00 0.41,-131.93 -0.30,-135.34 387.51 80
7 09/30/2013 10:44:16 0.61,-137.10 0.28,-135.39 193.78 80
8 10/02/2013 10:32:04 0.02,-134.14 0.28,-135.35 138.28 80
9 10/02/2013 22:53:28 -1.12,-139.33 -0.25,-135.28 460.78 80
10 10/04/2013 10:19:52 -0.59,-131.17 0.28,-135.31 469.92 80
11 10/04/2013 22:41:16 -0.51,-136.37 -0.26,-135.23 129.20 80




NCC Satellite Simultaneous Nadir Overpasses (SNOs) Prediction Service
